Time,TemperatureF,DewpointF,PressureIn,WindDirection,WindDirectionDegrees,WindSpeedMPH,WindSpeedGustMPH,Humidity,HourlyPrecipIn,Conditions,Clouds,dailyrainin,SolarRadiationWatts/m^2,SoftwareType,DateUTC
2013-05-16 00:22:00,53.0,39.0,-100.00,SSW,206,12.0,24.0,58,0.00,,,0.00,1.000000,,2013-05-16 06:22:00,
2013-05-16 00:33:00,53.0,39.0,-100.00,SSW,206,12.0,24.0,58,0.00,,,0.00,1.000000,,2013-05-16 06:33:00,
2013-05-16 00:43:00,53.0,39.0,-100.00,SSW,206,12.0,24.0,58,0.00,,,0.00,1.000000,,2013-05-16 06:43:00,
2013-05-16 00:52:00,53.0,39.0,-100.00,SSW,206,12.0,24.0,58,0.00,,,0.00,1.000000,,2013-05-16 06:52:00,
2013-05-16 01:24:00,51.0,38.0,-100.00,SSW,200,12.0,20.0,61,0.00,,,0.00,1.000000,,2013-05-16 07:24:00,
2013-05-16 01:34:00,51.0,38.0,-100.00,SSW,200,12.0,20.0,61,0.00,,,0.00,1.000000,,2013-05-16 07:34:00,
2013-05-16 01:44:00,51.0,38.0,-100.00,SSW,200,12.0,20.0,61,0.00,,,0.00,1.000000,,2013-05-16 07:44:00,
2013-05-16 01:54:00,51.0,38.0,-100.00,SSW,200,12.0,20.0,61,0.00,,,0.00,1.000000,,2013-05-16 07:54:00,
2013-05-16 02:23:00,49.0,41.0,-100.00,SSW,194,9.0,20.0,74,0.00,,,0.00,1.000000,,2013-05-16 08:23:00,
2013-05-16 02:34:00,49.0,41.0,-100.00,SSW,194,9.0,20.0,74,0.00,,,0.00,1.000000,,2013-05-16 08:34:00,
2013-05-16 02:44:00,49.0,41.0,-100.00,SSW,194,9.0,20.0,74,0.00,,,0.00,1.000000,,2013-05-16 08:44:00,
2013-05-16 02:54:00,49.0,41.0,-100.00,SSW,194,9.0,20.0,74,0.00,,,0.00,1.000000,,2013-05-16 08:54:00,
2013-05-16 03:24:00,48.0,41.0,-100.00,South,171,10.0,18.0,76,0.00,,,0.00,1.000000,,2013-05-16 09:24:00,
2013-05-16 03:35:00,48.0,41.0,-100.00,South,171,10.0,18.0,76,0.00,,,0.00,1.000000,,2013-05-16 09:35:00,
2013-05-16 03:45:00,48.0,41.0,-100.00,South,171,10.0,18.0,76,0.00,,,0.00,1.000000,,2013-05-16 09:45:00,
2013-05-16 03:55:00,48.0,41.0,-100.00,South,171,10.0,18.0,76,0.00,,,0.00,1.000000,,2013-05-16 09:55:00,
2013-05-16 04:24:00,44.0,39.0,-100.00,SE,146,6.0,11.0,82,0.00,,,0.00,1.000000,,2013-05-16 10:24:00,
2013-05-16 04:35:00,44.0,39.0,-100.00,SE,146,6.0,11.0,82,0.00,,,0.00,1.000000,,2013-05-16 10:35:00,
2013-05-16 04:45:00,44.0,39.0,-100.00,SE,146,6.0,11.0,82,0.00,,,0.00,1.000000,,2013-05-16 10:45:00,
2013-05-16 04:56:00,44.0,39.0,-100.00,SE,146,6.0,11.0,82,0.00,,,0.00,1.000000,,2013-05-16 10:56:00,
2013-05-16 05:25:00,43.0,39.0,-100.00,SW,225,2.0,7.0,85,0.00,,,0.00,1.000000,,2013-05-16 11:25:00,
2013-05-16 05:35:00,43.0,39.0,-100.00,SW,225,2.0,7.0,85,0.00,,,0.00,1.000000,,2013-05-16 11:35:00,
2013-05-16 05:46:00,43.0,39.0,-100.00,SW,225,2.0,7.0,85,0.00,,,0.00,1.000000,,2013-05-16 11:46:00,
2013-05-16 05:56:00,43.0,39.0,-100.00,SW,225,2.0,7.0,85,0.00,,,0.00,1.000000,,2013-05-16 11:56:00,
2013-05-16 06:23:00,43.0,39.0,-100.00,NNW,329,2.0,5.0,87,0.00,,,0.00,1.000000,,2013-05-16 12:23:00,
2013-05-16 06:34:00,43.0,39.0,-100.00,NNW,329,2.0,5.0,87,0.00,,,0.00,1.000000,,2013-05-16 12:34:00,
2013-05-16 06:45:00,43.0,39.0,-100.00,NNW,329,2.0,5.0,87,0.00,,,0.00,1.000000,,2013-05-16 12:45:00,
2013-05-16 06:53:00,43.0,39.0,-100.00,NNW,329,2.0,5.0,87,0.00,,,0.00,1.000000,,2013-05-16 12:53:00,
2013-05-16 07:26:00,44.0,41.0,-100.00,NW,314,1.0,5.0,88,0.00,,,0.00,27.000000,,2013-05-16 13:26:00,
2013-05-16 07:35:00,44.0,41.0,-100.00,NW,314,1.0,5.0,88,0.00,,,0.00,27.000000,,2013-05-16 13:35:00,
2013-05-16 07:43:00,44.0,41.0,-100.00,NW,314,1.0,5.0,88,0.00,,,0.00,27.000000,,2013-05-16 13:43:00,
2013-05-16 07:54:00,44.0,41.0,-100.00,NW,314,1.0,5.0,88,0.00,,,0.00,27.000000,,2013-05-16 13:54:00,
2013-05-16 08:23:00,50.0,42.0,-100.00,NE,34,3.0,8.0,73,0.00,,,0.00,135.000000,,2013-05-16 14:23:00,
2013-05-16 08:37:00,50.0,42.0,-100.00,NE,34,3.0,8.0,73,0.00,,,0.00,135.000000,,2013-05-16 14:37:00,
2013-05-16 08:47:00,50.0,42.0,-100.00,NE,34,3.0,8.0,73,0.00,,,0.00,135.000000,,2013-05-16 14:47:00,
2013-05-16 08:55:00,50.0,42.0,-100.00,NE,34,3.0,8.0,73,0.00,,,0.00,135.000000,,2013-05-16 14:55:00,
2013-05-16 08:58:00,52.0,41.0,-100.00,NE,50,4.0,7.0,67,0.00,,,0.00,314.000000,,2013-05-16 14:58:00,
2013-05-16 09:28:00,52.0,41.0,-100.00,NE,50,4.0,7.0,67,0.00,,,0.00,314.000000,,2013-05-16 15:28:00,
2013-05-16 09:40:00,52.0,41.0,-100.00,NE,50,4.0,7.0,67,0.00,,,0.00,314.000000,,2013-05-16 15:40:00,
2013-05-16 09:50:00,52.0,41.0,-100.00,NE,50,4.0,7.0,67,0.00,,,0.00,314.000000,,2013-05-16 15:50:00,
2013-05-16 09:58:00,54.0,42.0,-100.00,South,188,11.0,19.0,63,0.00,,,0.00,373.000000,,2013-05-16 15:58:00,
2013-05-16 10:30:00,54.0,42.0,-100.00,South,188,11.0,19.0,63,0.00,,,0.00,373.000000,,2013-05-16 16:30:00,
2013-05-16 10:40:00,54.0,-99.9,-100.00,South,188,11.0,19.0,63,0.00,,,0.00,373.000000,,2013-05-16 16:40:00,
2013-05-16 10:50:00,54.0,42.0,-100.00,South,188,11.0,19.0,63,0.00,,,0.00,373.000000,,2013-05-16 16:50:00,
2013-05-16 10:58:00,57.0,-99.9,-100.00,SSW,195,14.0,20.0,55,0.00,,,0.00,375.000000,,2013-05-16 16:58:00,
2013-05-16 11:30:00,57.0,41.0,-100.00,SSW,195,14.0,20.0,55,0.00,,,0.00,375.000000,,2013-05-16 17:30:00,
2013-05-16 11:40:00,57.0,41.0,-100.00,SSW,195,14.0,20.0,55,0.00,,,0.00,375.000000,,2013-05-16 17:40:00,
2013-05-16 11:50:00,57.0,-99.9,-100.00,SSW,195,14.0,20.0,55,0.00,,,0.00,375.000000,,2013-05-16 17:50:00,
2013-05-16 11:58:00,-999.0,-99.9,-100.00,South,191,18.0,25.0,52,0.00,,,0.00,661.000000,,2013-05-16 17:58:00,
2013-05-16 12:30:00,-999.0,-99.9,-100.00,South,191,18.0,25.0,52,0.00,,,0.00,661.000000,,2013-05-16 18:30:00,
2013-05-16 12:40:00,-999.0,-99.9,-100.00,South,191,18.0,25.0,52,0.00,,,0.00,661.000000,,2013-05-16 18:40:00,
2013-05-16 12:50:00,-999.0,-99.9,-100.00,South,191,18.0,25.0,52,0.00,,,0.00,661.000000,,2013-05-16 18:50:00,
2013-05-16 12:58:00,60.0,-99.9,-100.00,SSW,195,12.0,24.0,47,0.00,,,0.00,820.000000,,2013-05-16 18:58:00,
2013-05-16 13:30:00,60.0,40.0,-100.00,SSW,195,12.0,24.0,47,0.00,,,0.00,820.000000,,2013-05-16 19:30:00,
2013-05-16 13:40:00,60.0,-99.9,-100.00,SSW,195,12.0,24.0,47,0.00,,,0.00,820.000000,,2013-05-16 19:40:00,
2013-05-16 13:50:00,-999.0,-99.9,-100.00,SSW,195,12.0,24.0,47,0.00,,,0.00,820.000000,,2013-05-16 19:50:00,
2013-05-16 13:58:00,54.0,38.0,-100.00,West,274,8.0,19.0,54,0.00,,,0.00,282.000000,,2013-05-16 19:58:00,
2013-05-16 14:30:00,54.0,38.0,-100.00,West,274,8.0,19.0,54,0.00,,,0.00,282.000000,,2013-05-16 20:30:00,
2013-05-16 14:40:00,-999.0,-99.9,-100.00,West,274,8.0,19.0,54,0.00,,,0.00,282.000000,,2013-05-16 20:40:00,
2013-05-16 14:50:00,54.0,38.0,-100.00,West,274,8.0,19.0,54,0.00,,,0.00,282.000000,,2013-05-16 20:50:00,
2013-05-16 14:58:00,-999.0,-99.9,-100.00,SSE,164,8.0,17.0,47,0.01,,,0.01,545.000000,,2013-05-16 20:58:00,
2013-05-16 15:29:00,59.0,39.0,-100.00,SSE,164,8.0,17.0,47,0.01,,,0.01,545.000000,,2013-05-16 21:29:00,
2013-05-16 15:38:00,59.0,39.0,-100.00,SSE,164,8.0,17.0,47,0.01,,,0.01,545.000000,,2013-05-16 21:38:00,
2013-05-16 15:50:00,59.0,-99.9,-100.00,SSE,164,8.0,17.0,47,0.01,,,0.01,545.000000,,2013-05-16 21:50:00,
2013-05-16 15:58:00,57.0,38.0,-100.00,South,174,13.0,23.0,49,0.00,,,0.01,422.000000,,2013-05-16 21:58:00,
2013-05-16 16:30:00,57.0,38.0,-100.00,South,174,13.0,23.0,49,0.00,,,0.01,422.000000,,2013-05-16 22:30:00,
2013-05-16 16:40:00,57.0,38.0,-100.00,South,174,13.0,23.0,49,0.00,,,0.01,422.000000,,2013-05-16 22:40:00,
2013-05-16 16:50:00,57.0,38.0,-100.00,South,174,13.0,23.0,49,0.00,,,0.01,422.000000,,2013-05-16 22:50:00,
2013-05-16 17:24:00,54.0,40.0,-100.00,South,176,9.0,19.0,59,0.00,,,0.01,168.000000,,2013-05-16 23:24:00,
2013-05-16 17:34:00,54.0,40.0,-100.00,South,176,9.0,19.0,59,0.00,,,0.01,168.000000,,2013-05-16 23:34:00,
2013-05-16 17:45:00,54.0,40.0,-100.00,South,176,9.0,19.0,59,0.00,,,0.01,168.000000,,2013-05-16 23:45:00,
2013-05-16 17:54:00,54.0,40.0,-100.00,South,176,9.0,19.0,59,0.00,,,0.01,168.000000,,2013-05-16 23:54:00,
2013-05-16 18:22:00,48.0,42.0,-100.00,SSW,197,14.0,22.0,81,0.00,,,0.01,66.000000,,2013-05-17 00:22:00,
2013-05-16 18:33:00,48.0,42.0,-100.00,SSW,197,14.0,22.0,81,0.00,,,0.01,66.000000,,2013-05-17 00:33:00,
2013-05-16 18:43:00,48.0,42.0,-100.00,SSW,197,14.0,22.0,81,0.00,,,0.01,66.000000,,2013-05-17 00:43:00,
2013-05-16 18:52:00,48.0,42.0,-100.00,SSW,197,14.0,22.0,81,0.00,,,0.01,66.000000,,2013-05-17 00:52:00,
2013-05-16 19:23:00,47.0,46.0,-100.00,SSW,192,8.0,17.0,96,0.07,,,0.08,26.000000,,2013-05-17 01:23:00,
2013-05-16 19:32:00,47.0,46.0,-100.00,SSW,192,8.0,17.0,96,0.07,,,0.08,26.000000,,2013-05-17 01:32:00,
2013-05-16 19:43:00,47.0,46.0,-100.00,SSW,192,8.0,17.0,96,0.07,,,0.08,26.000000,,2013-05-17 01:43:00,
2013-05-16 19:52:00,47.0,46.0,-100.00,SSW,192,8.0,17.0,96,0.07,,,0.08,26.000000,,2013-05-17 01:52:00,
2013-05-16 20:21:00,47.0,45.0,-100.00,ESE,118,5.0,10.0,94,0.01,,,0.09,45.000000,,2013-05-17 02:21:00,
2013-05-16 20:32:00,47.0,45.0,-100.00,ESE,118,5.0,10.0,94,0.01,,,0.09,45.000000,,2013-05-17 02:32:00,
2013-05-16 20:42:00,47.0,45.0,-100.00,ESE,118,5.0,10.0,94,0.01,,,0.09,45.000000,,2013-05-17 02:42:00,
2013-05-16 20:52:00,47.0,45.0,-100.00,ESE,118,5.0,10.0,94,0.01,,,0.09,45.000000,,2013-05-17 02:52:00,
2013-05-16 21:22:00,46.0,45.0,-100.00,North,359,3.0,6.0,97,0.00,,,0.09,14.000000,,2013-05-17 03:22:00,
2013-05-16 21:34:00,46.0,45.0,-100.00,North,359,3.0,6.0,97,0.00,,,0.09,14.000000,,2013-05-17 03:34:00,
2013-05-16 21:43:00,46.0,45.0,-100.00,North,359,3.0,6.0,97,0.00,,,0.09,14.000000,,2013-05-17 03:43:00,
2013-05-16 21:53:00,46.0,45.0,-100.00,North,359,3.0,6.0,97,0.00,,,0.09,14.000000,,2013-05-17 03:53:00,
2013-05-16 22:23:00,46.0,45.0,-100.00,NNE,14,2.0,5.0,98,0.01,,,0.10,1.000000,,2013-05-17 04:23:00,
2013-05-16 22:33:00,46.0,45.0,-100.00,NNE,14,2.0,5.0,98,0.01,,,0.10,1.000000,,2013-05-17 04:33:00,
2013-05-16 22:43:00,46.0,45.0,-100.00,NNE,14,2.0,5.0,98,0.01,,,0.10,1.000000,,2013-05-17 04:43:00,
2013-05-16 22:53:00,46.0,45.0,-100.00,NNE,14,2.0,5.0,98,0.01,,,0.10,1.000000,,2013-05-17 04:53:00,
2013-05-16 23:22:00,45.0,44.0,-100.00,NW,325,4.0,6.0,95,0.00,,,-99.99,1.000000,,2013-05-17 05:22:00,
2013-05-16 23:32:00,45.0,44.0,-100.00,NW,325,4.0,6.0,95,0.00,,,-99.99,1.000000,,2013-05-17 05:32:00,
2013-05-16 23:42:00,45.0,44.0,-100.00,NW,325,4.0,6.0,95,0.00,,,-99.99,1.000000,,2013-05-17 05:42:00,
2013-05-16 23:52:00,45.0,44.0,-100.00,NW,325,4.0,6.0,95,0.00,,,-99.99,1.000000,,2013-05-17 05:52:00,